Location: Newark
(51.0500°N, 12.4500°E)
Time: 05:35:34
(UTC+00:00)

Transit 2A - All Passes

Search period start: 27 February 2020 00:00
Search period end: 08 March 2020 00:00
Orbit: 599 x 959 km, 66.7° (Epoch: 25 February)

Date Brightness Start Highest point End Pass type
(mag) Time Alt. Az. Time Alt. Az. Time Alt. Az.
27 Feb - 11:08:36 10° SSW 11:12:47 50° ESE 11:17:10 10° NE daylight
27 Feb - 12:52:15 10° W 12:56:09 30° NW 13:00:16 10° NNE daylight
27 Feb - 14:38:35 10° NW 14:40:51 13° NNW 14:43:12 10° NNE daylight
27 Feb - 16:23:25 10° NNW 16:26:04 14° NNE 16:28:51 10° NE daylight
27 Feb - 18:06:09 10° NNW 18:10:40 34° NE 18:15:35 10° ESE visible
27 Feb - 19:49:07 10° NW 19:54:05 58° WSW 19:59:35 10° SSE visible
27 Feb - 21:35:33 10° W 21:36:24 10° WSW 21:37:16 10° WSW visible
28 Feb - 10:34:51 10° S 10:38:46 34° ESE 10:42:51 10° NE daylight
28 Feb - 12:17:44 10° WSW 12:21:51 39° NW 12:26:13 10° NNE daylight
28 Feb - 14:03:44 10° NW 14:06:20 15° NNW 14:09:03 10° NNE daylight
28 Feb - 15:49:14 10° NNW 15:51:33 13° N 15:53:58 10° NE daylight
28 Feb - 17:32:06 10° NNW 17:36:20 28° NE 17:40:55 10° E visible
28 Feb - 19:14:55 10° NW 19:19:58 78° SW 19:25:35 10° SSE visible
28 Feb - 20:59:33 10° WNW 21:02:32 15° WSW 21:05:38 10° SW visible
29 Feb - 10:01:19 10° SSE 10:04:48 24° ESE 10:08:24 10° ENE daylight
29 Feb - 11:43:20 10° SW 11:47:36 53° NW 11:52:08 10° NNE daylight
29 Feb - 13:28:54 10° WNW 13:31:51 17° NNW 13:34:56 10° NNE daylight
29 Feb - 15:14:55 10° NNW 15:17:01 13° N 15:19:10 10° NNE daylight
29 Feb - 16:58:03 10° NNW 17:01:58 23° NNE 17:06:11 10° E daylight
29 Feb - 18:40:47 10° NW 18:45:50 80° NE 18:51:27 10° SE visible
29 Feb - 20:24:43 10° WNW 20:28:36 21° WSW 20:32:44 10° SSW visible
01 Mar - 09:28:08 10° SSE 09:30:54 17° ESE 09:33:43 10° ENE daylight
01 Mar - 11:09:04 10° SW 11:13:25 74° NW 11:18:01 10° NE daylight
01 Mar - 12:54:06 10° WNW 12:57:24 20° NNW 13:00:51 10° NNE daylight
01 Mar - 14:40:27 10° NNW 14:42:28 12° N 14:44:31 10° NNE daylight
01 Mar - 16:23:59 10° NNW 16:27:33 20° NNE 16:31:20 10° ENE daylight
01 Mar - 18:06:40 10° NNW 18:11:39 60° NE 18:17:09 10° SE visible
01 Mar - 19:50:11 10° NW 19:54:37 29° WSW 19:59:26 10° S visible
02 Mar - 08:55:44 10° ESE 08:57:02 11° ESE 08:58:21 10° E daylight
02 Mar - 10:34:56 10° SSW 10:39:16 79° SE 10:43:51 10° NE daylight
02 Mar - 12:19:22 10° W 12:22:59 24° NNW 12:26:48 10° NNE daylight
02 Mar - 14:05:50 10° NNW 14:07:55 13° N 14:10:04 10° NNE daylight
02 Mar - 15:49:54 10° NNW 15:53:06 17° NNE 15:56:27 10° ENE daylight
02 Mar - 17:32:35 10° NNW 17:37:25 46° NE 17:42:45 10° ESE visible
02 Mar - 19:15:49 10° NW 19:20:36 40° WSW 19:25:51 10° S visible
03 Mar - 10:00:58 10° SSW 10:05:12 55° ESE 10:09:39 10° NE daylight
03 Mar - 11:44:44 10° W 11:48:37 29° NW 11:52:44 10° NNE daylight
03 Mar - 13:31:04 10° NW 13:33:22 13° N 13:35:46 10° NNE daylight
03 Mar - 15:15:47 10° NNW 15:18:36 15° NNE 15:21:34 10° NE daylight
03 Mar - 16:58:32 10° NNW 17:03:09 36° NE 17:08:13 10° ESE daylight
03 Mar - 18:41:32 10° NW 18:46:33 54° WSW 18:52:04 10° SSE visible
04 Mar - 09:27:10 10° S 09:31:10 37° ESE 09:35:21 10° NE daylight
04 Mar - 11:10:12 10° WSW 11:14:18 37° NW 11:18:40 10° NNE daylight
04 Mar - 12:56:15 10° NW 12:58:51 15° NNW 13:01:33 10° NNE daylight
04 Mar - 14:41:36 10° NNW 14:44:05 14° NNE 14:46:40 10° NE daylight
04 Mar - 16:24:28 10° NNW 16:28:50 29° NE 16:33:34 10° E daylight
04 Mar - 18:07:20 10° NW 18:12:27 74° SW 18:18:06 10° SSE visible
04 Mar - 19:52:08 10° WNW 19:54:57 14° WSW 19:57:52 10° SW visible
05 Mar - 08:53:35 10° S 08:57:11 26° ESE 09:00:56 10° ENE daylight
05 Mar - 10:35:47 10° WSW 10:40:03 50° NW 10:44:35 10° NNE daylight
05 Mar - 12:21:25 10° WNW 12:24:22 17° NNW 12:27:25 10° NNE daylight
05 Mar - 14:07:19 10° NNW 14:09:32 13° N 14:11:52 10° NE daylight
05 Mar - 15:50:25 10° NNW 15:54:29 24° NNE 15:58:50 10° E daylight
05 Mar - 17:33:11 10° NW 17:38:18 84° NE 17:43:59 10° SE visible
05 Mar - 19:17:14 10° WNW 19:21:02 20° WSW 19:25:04 10° SSW visible
06 Mar - 08:20:18 10° SSE 08:23:16 18° ESE 08:26:20 10° ENE daylight
06 Mar - 10:01:30 10° SW 10:05:50 69° NW 10:10:28 10° NE daylight
06 Mar - 11:46:37 10° WNW 11:49:54 19° NNW 11:53:20 10° NNE daylight
06 Mar - 13:32:52 10° NNW 13:35:00 13° N 13:37:11 10° NNE daylight
06 Mar - 15:16:21 10° NNW 15:20:04 21° NNE 15:24:02 10° ENE daylight
06 Mar - 16:59:04 10° NW 17:04:07 64° NE 17:09:44 10° SE daylight
06 Mar - 18:42:39 10° WNW 18:47:04 28° WSW 18:51:49 10° S visible
07 Mar - 07:47:37 10° SE 07:49:24 12° ESE 07:51:14 10° E daylight
07 Mar - 09:27:20 10° SSW 09:31:41 85° SE 09:36:20 10° NE daylight
07 Mar - 11:11:53 10° W 11:15:28 23° NNW 11:19:16 10° NNE daylight
07 Mar - 12:58:17 10° NNW 13:00:27 13° N 13:02:41 10° NNE daylight
07 Mar - 14:42:16 10° NNW 14:45:37 18° NNE 14:49:10 10° ENE daylight
07 Mar - 16:24:59 10° NNW 16:29:55 49° NE 16:35:21 10° ESE daylight
07 Mar - 18:08:15 10° NW 18:13:03 38° WSW 18:18:18 10° S visible
